[[{"header":{"parameterUnit":"m.s-1","parameterCategory":2,"la1":30.2991,"la2":30.254,"lo1":-89.0895,"lo2":-89.0444,"dy":0.0017,"dx":0.0017,"nx":28,"ny":28,"refTime":"2024-02-29T03:00:00:Z","depth":"0","parameterNumber":2,"parameterNumberName":"U-component_of_CURRENTS"},"data":[0,0,0,0,0,0,0,0,0,0,0,0,0,0,0,0,0,0,0,0,0,0,0,0,0,0,0,0,0,0,0,0,0,0,0,0,0,0,0,0,0,0,0,0,0,0,0,0,0,0,0,0,0,0,0,0,0,0,0.1564,0.1564,0,0.16,0.1601,0.1601,0.1619,0.1619,0.1618,0.1618,0.1589,0.1589,0.1589,0,0,0,0,0,0,0,0,0,0,0,0,0,0.1574,0.1574,0.1564,0.1564,0.1564,0.16,0.1601,0.1602,0.1619,0.1619,0.1618,0.1618,0.1589,0.1589,0.1589,0,0,0,0,0,0,0,0,0,0,0,0,0,0.159,0.1574,0.1564,0.1574,0.1575,0.16,0.1601,0.1602,0.1619,0.1619,0.1618,0.1617,0.159,0.1589,0.1589,0.1598,0,0,0.1587,0.1587,0,0,0,0,0,0,0,0,0.1589,0.159,0.1573,0.1573,0.1574,0.16,0.1594,0.1596,0.1619,0.1607,0.1618,0.1617,0.1584,0.1584,0.16,0.1597,0.1596,0.1587,0.1587,0.1586,0.1586,0,0,0,0,0,0,0,0.1588,0.1589,0.1583,0.1572,0.1574,0.1598,0.1599,0.1595,0.1602,0.1608,0.1609,0.1605,0.1585,0.1601,0.1599,0.1595,0.1587,0.1586,0.1586,0.1586,0.1626,0.1627,0,0,0,0,0,0,0.1572,0.1588,0.1582,0.1584,0.1575,0.1597,0.1599,0.1596,0.1603,0.1603,0.1606,0.1606,0.1602,0.16,0.1598,0.1667,0.1586,0.1586,0.1585,0.1625,0.1626,0.1628,0,0,0,0,0,0,0.1572,0.1571,0.1581,0.1583,0.1585,0.1597,0.1594,0.1597,0.1618,0.1601,0.16,0.1622,0.1601,0.1599,0.1609,0.1663,0.1586,0.1585,0.1623,0.1625,0.1627,0.1766,0,0,0,0,0,0,0.1572,0.1571,0.1577,0.1582,0.1584,0.1621,0.1594,0.1598,0.1614,0.1615,0.1615,0.1611,0.1601,0.161,0.1609,0.1661,0.1585,0.1621,0.1624,0.1627,0.176,0.1773,0.1784,0,0,0,0,0,0.1572,0.1594,0.1577,0.1577,0.1588,0.1622,0.1629,0.1637,0.1615,0.1648,0.1634,0.1612,0.1625,0.1611,0.1609,0.1662,0.162,0.1623,0.1626,0.1754,0.177,0.1783,0,0,0,0,0,0,0.1625,0.1597,0.1579,0.1596,0.1613,0.1624,0.1661,0.1642,0.1659,0.165,0.1628,0.1626,0.1653,0.1631,0.1615,0.1678,0.162,0.1622,0.1718,0.1732,0.1744,0.1746,0.1584,0,0,0,0,0,0.1629,0.1629,0.1618,0.164,0.1652,0.1652,0.1667,0.1657,0.1662,0.167,0.1667,0.1658,0.1666,0.1676,0.1671,0.1708,0.1718,0.1738,0.175,0.1761,0.1759,0.1821,0.184,0.1638,0.1638,0.1638,0,0,0.1648,0.1643,0.1638,0.1649,0.1669,0.1696,0.1664,0.1689,0.1708,0.1661,0.1704,0.1694,0.1679,0.1724,0.1736,0.1715,0.1832,0.1765,0.1774,0.1767,0.1827,0.1847,0.1864,0.164,0.164,0.164,0,0,0.1694,0.1696,0.1704,0.1724,0.1735,0.1741,0.1746,0.1753,0.1765,0.1787,0.1761,0.1784,0.1793,0.1811,0.1814,0.1885,0.1884,0.1882,0.1962,0.2024,0.2042,0.2057,0.2142,0.2163,0.1901,0.1902,0.1902,0,0.1704,0.1723,0.1723,0.1751,0.1773,0.1762,0.1789,0.181,0.1815,0.1831,0.1814,0.1849,0.184,0.1901,0.1931,0.1917,0.1953,0.1916,0.2044,0.2059,0.2072,0.2154,0.2176,0.1909,0.1908,0.1907,0.1906,0,0.1767,0.1774,0.1804,0.1822,0.1856,0.1885,0.1898,0.1927,0.1927,0.1935,0.1985,0.1986,0.2009,0.2022,0.2,0.2095,0.2093,0.2048,0.2016,0.2102,0.2182,0.2203,0.1919,0.1916,0.1914,0.1912,0,0,0.179,0.1819,0.1838,0.184,0.1886,0.1915,0.1971,0.2015,0.2048,0.2073,0.2137,0.2164,0.2161,0.2162,0.2153,0.221,0.2357,0.218,0.218,0.2279,0.2525,0.2589,0.2618,0.2342,0.2345,0.2347,0.2561,0,0.1828,0.1871,0.1894,0.1948,0.196,0.1989,0.2045,0.2084,0.2121,0.2189,0.2213,0.2262,0.2218,0.2242,0.2298,0.232,0.241,0.2304,0.2411,0.2414,0.2474,0.2643,0.2619,0.2812,0.2581,0.2584,0.2586,0,0.1885,0.1894,0.1935,0.1966,0.1986,0.2024,0.2113,0.2159,0.2249,0.2277,0.2341,0.2362,0.2452,0.2398,0.2525,0.2462,0.2513,0.2538,0.2546,0.2563,0.2517,0.2677,0.2858,0.2726,0.2618,0.2615,0.2613,0,0.1889,0.1935,0.1961,0.1978,0.2016,0.205,0.2097,0.2181,0.2231,0.2345,0.2396,0.2489,0.2545,0.2614,0.2675,0.2613,0.2826,0.2743,0.2862,0.2867,0.2845,0.2843,0.2918,0.2866,0.2866,0.2865,0.2864,0,0.1911,0.1924,0.1958,0.1961,0.2003,0.2052,0.2126,0.2176,0.2281,0.2359,0.2439,0.252,0.2599,0.272,0.2756,0.2904,0.2903,0.2925,0.2943,0.2897,0.2897,0.2772,0.2689,0.2873,0.2871,0.287,0.2868,0,0.1874,0.1909,0.1913,0.1961,0.1984,0.2017,0.2118,0.217,0.2272,0.2385,0.2431,0.2579,0.2744,0.2851,0.2994,0.3022,0.309,0.319,0.3151,0.3161,0.3119,0.3045,0.3156,0.3057,0.3362,0.3365,0.3368,0,0.1842,0.1842,0.1892,0.1904,0.1914,0.1978,0.202,0.2141,0.2213,0.2412,0.2469,0.2679,0.2828,0.3102,0.3223,0.3392,0.323,0.344,0.331,0.3172,0.3102,0.3011,0.2908,0.3352,0.3355,0.3356,0.3358,0,0.1753,0.1783,0.1786,0.1822,0.1864,0.192,0.2003,0.2063,0.2228,0.2353,0.2541,0.2691,0.2998,0.3196,0.3438,0.3501,0.3309,0.3484,0.3343,0.3131,0.3035,0.2927,0.3159,0.3375,0.3373,0.3372,0.3371,0.337,0.1688,0.168,0.1713,0.1746,0.1784,0.1848,0.1899,0.2008,0.215,0.2333,0.2517,0.2728,0.3073,0.3427,0.3505,0.3569,0.3462,0.3445,0.3385,0.3319,0.3169,0.3468,0.3687,0.3687,0.3687,0.3687,0.3687,0,0.161,0.1633,0.1641,0.1695,0.1704,0.1764,0.1875,0.194,0.208,0.2273,0.2458,0.2818,0.3086,0.3332,0.3553,0.3464,0.3342,0.3323,0.313,0.3037,0.3321,0.3258,0.339,0.339,0.339,0.339,0.339,0.339,0.1592,0.1587,0.1604,0.1614,0.1638,0.1674,0.1731,0.1832,0.1974,0.2196,0.2384,0.2573,0.296,0.3303,0.3363,0.3289,0.3005,0.2991,0.2857,0.2976,0.2978,0.298,0.2899,0.2955,0.2954,0.2511,0.2507,0.2504]},{"header":{"parameterUnit":"m.s-1","parameterCategory":2,"la1":30.2991,"la2":30.254,"lo1":-89.0895,"lo2":-89.0444,"dy":0.0017,"dx":0.0017,"nx":28,"ny":28,"refTime":"2024-02-29T03:00:00:Z","depth":"0","parameterNumber":3,"parameterNumberName":"V-component_of_CURRENTS"},"data":[0,0,0,0,0,0,0,0,0,0,0,0,0,0,0,0,0,0,0,0,0,0,0,0,0,0,0,0,0,0,0,0,0,0,0,0,0,0,0,0,0,0,0,0,0,0,0,0,0,0,0,0,0,0,0,0,0,0,-0.1123,-0.1123,0,-0.1235,-0.1237,-0.124,-0.1314,-0.1313,-0.1312,-0.1311,-0.1458,-0.1462,-0.1467,0,0,0,0,0,0,0,0,0,0,0,0,0,-0.1162,-0.1161,-0.1123,-0.1123,-0.1123,-0.1234,-0.1237,-0.124,-0.1314,-0.1313,-0.1312,-0.1311,-0.1456,-0.1462,-0.1467,0,0,0,0,0,0,0,0,0,0,0,0,0,-0.1211,-0.1161,-0.1123,-0.1162,-0.1166,-0.1234,-0.1237,-0.1241,-0.1314,-0.1313,-0.1312,-0.1311,-0.1454,-0.1461,-0.1468,-0.1539,0,0,-0.149,-0.1493,0,0,0,0,0,0,0,0,-0.1208,-0.1211,-0.1156,-0.1159,-0.1163,-0.1246,-0.1304,-0.1337,-0.1315,-0.1274,-0.1311,-0.131,-0.1381,-0.1394,-0.1439,-0.1546,-0.1552,-0.1491,-0.1495,-0.1498,-0.15,0,0,0,0,0,0,0,-0.1204,-0.1207,-0.1183,-0.1156,-0.116,-0.1237,-0.1243,-0.1313,-0.1346,-0.1278,-0.1279,-0.1268,-0.1385,-0.1433,-0.1443,-0.1554,-0.149,-0.1497,-0.1501,-0.1504,-0.1698,-0.1698,0,0,0,0,0,0,-0.1151,-0.1203,-0.1179,-0.1185,-0.1165,-0.1236,-0.1243,-0.1233,-0.1345,-0.1356,-0.1269,-0.1271,-0.1421,-0.1435,-0.1448,-0.1486,-0.1498,-0.1505,-0.1509,-0.1697,-0.1698,-0.1699,0,0,0,0,0,0,-0.1151,-0.1148,-0.1174,-0.1185,-0.1191,-0.1233,-0.1224,-0.1236,-0.1278,-0.1335,-0.135,-0.1296,-0.1421,-0.1438,-0.1477,-0.1493,-0.1508,-0.1514,-0.1696,-0.1697,-0.1698,-0.1593,0,0,0,0,0,0,-0.1152,-0.1148,-0.1177,-0.118,-0.1188,-0.1259,-0.1224,-0.1238,-0.1265,-0.127,-0.1363,-0.1376,-0.1421,-0.1466,-0.1484,-0.1503,-0.152,-0.1695,-0.1696,-0.1698,-0.1596,-0.1591,-0.1587,0,0,0,0,0,-0.1153,-0.1169,-0.1178,-0.1177,-0.1208,-0.126,-0.1278,-0.1312,-0.1267,-0.1336,-0.1327,-0.1373,-0.1491,-0.1471,-0.1493,-0.1514,-0.1694,-0.1696,-0.1698,-0.1598,-0.1592,-0.1587,0,0,0,0,0,0,-0.1186,-0.1176,-0.1186,-0.1196,-0.1248,-0.1268,-0.1313,-0.1309,-0.1361,-0.1313,-0.1373,-0.1388,-0.1429,-0.1492,-0.1469,-0.1579,-0.1607,-0.1613,-0.1523,-0.1519,-0.1514,-0.1475,-0.1526,0,0,0,0,0,-0.1205,-0.1219,-0.1235,-0.1248,-0.1269,-0.129,-0.132,-0.1305,-0.1318,-0.134,-0.1412,-0.1446,-0.1462,-0.1498,-0.1554,-0.1616,-0.1639,-0.1651,-0.1647,-0.1642,-0.1627,-0.1636,-0.1629,-0.1705,-0.1705,-0.1705,0,0,-0.121,-0.1208,-0.1215,-0.1259,-0.1288,-0.1307,-0.1311,-0.131,-0.1297,-0.1343,-0.1396,-0.1434,-0.147,-0.152,-0.155,-0.1572,-0.1639,-0.1645,-0.164,-0.1627,-0.1637,-0.1629,-0.1622,-0.1707,-0.1706,-0.1706,0,0,-0.1189,-0.1235,-0.1233,-0.1285,-0.1296,-0.131,-0.1303,-0.1337,-0.1348,-0.1373,-0.1372,-0.1409,-0.1509,-0.1532,-0.1538,-0.1552,-0.1602,-0.1593,-0.1553,-0.1561,-0.1554,-0.1547,-0.158,-0.1577,-0.1605,-0.1605,-0.1605,0,-0.1206,-0.1179,-0.1253,-0.1268,-0.1286,-0.1301,-0.1291,-0.1311,-0.1352,-0.1349,-0.1375,-0.1451,-0.1502,-0.1491,-0.1491,-0.154,-0.1555,-0.1557,-0.1549,-0.1543,-0.1538,-0.1573,-0.1572,-0.16,-0.1601,-0.1601,-0.1601,0,-0.1196,-0.1175,-0.1179,-0.12,-0.1266,-0.1245,-0.127,-0.1288,-0.1282,-0.1311,-0.1333,-0.1397,-0.1449,-0.1477,-0.1476,-0.1478,-0.1503,-0.1523,-0.1546,-0.1523,-0.1564,-0.1563,-0.1593,-0.1595,-0.1596,-0.1597,0,0,-0.1201,-0.1166,-0.1175,-0.115,-0.1201,-0.1235,-0.1205,-0.1213,-0.1162,-0.1254,-0.1256,-0.1293,-0.1354,-0.1367,-0.1407,-0.1417,-0.1404,-0.1449,-0.1452,-0.1453,-0.1429,-0.1414,-0.1414,-0.1407,-0.1406,-0.1406,-0.1475,0,-0.1157,-0.1111,-0.114,-0.1112,-0.1082,-0.1116,-0.1101,-0.1112,-0.1138,-0.118,-0.1217,-0.1263,-0.1303,-0.1321,-0.1334,-0.1372,-0.1397,-0.1385,-0.1477,-0.148,-0.1444,-0.141,-0.1322,-0.1371,-0.1475,-0.1475,-0.1475,0,-0.1149,-0.1095,-0.1041,-0.0979,-0.0986,-0.0986,-0.0973,-0.0981,-0.101,-0.1013,-0.1072,-0.1163,-0.1202,-0.1251,-0.1297,-0.128,-0.1349,-0.1387,-0.1391,-0.1407,-0.1463,-0.1413,-0.1368,-0.1532,-0.1475,-0.1475,-0.1475,0,-0.1104,-0.1042,-0.0977,-0.0984,-0.0936,-0.0898,-0.0902,-0.0921,-0.0905,-0.0961,-0.0954,-0.1046,-0.1092,-0.1157,-0.1276,-0.1276,-0.1337,-0.1362,-0.1422,-0.1424,-0.1384,-0.1382,-0.1477,-0.1409,-0.1409,-0.1409,-0.1408,0,-0.1043,-0.0986,-0.0927,-0.0894,-0.0795,-0.0851,-0.0805,-0.076,-0.0779,-0.0779,-0.0898,-0.0896,-0.1063,-0.1154,-0.1248,-0.1324,-0.1326,-0.1396,-0.1425,-0.135,-0.1345,-0.1515,-0.1622,-0.1411,-0.1411,-0.141,-0.141,0,-0.0969,-0.0943,-0.0835,-0.0763,-0.0748,-0.0705,-0.071,-0.067,-0.0672,-0.0672,-0.0693,-0.0787,-0.0864,-0.1037,-0.1175,-0.1277,-0.146,-0.1417,-0.1333,-0.1348,-0.1516,-0.162,-0.1801,-0.1927,-0.1458,-0.1458,-0.1458,0,-0.0918,-0.0862,-0.0746,-0.0689,-0.0636,-0.0611,-0.0563,-0.0583,-0.0589,-0.0593,-0.0584,-0.0675,-0.0698,-0.089,-0.1082,-0.1243,-0.1463,-0.1346,-0.1326,-0.1497,-0.1636,-0.1763,-0.1867,-0.1252,-0.125,-0.1248,-0.1247,0,-0.0808,-0.0769,-0.0659,-0.0544,-0.0483,-0.0441,-0.042,-0.038,-0.0436,-0.0364,-0.0329,-0.0339,-0.0547,-0.0669,-0.094,-0.1076,-0.1458,-0.1318,-0.1505,-0.1478,-0.1613,-0.1756,-0.1273,-0.1234,-0.1235,-0.1236,-0.1237,-0.1237,-0.0721,-0.0618,-0.0509,-0.0402,-0.0332,-0.0255,-0.0194,-0.0185,-0.0107,0.0007,-0.0085,0.0031,-0.0301,-0.0597,-0.0879,-0.1301,-0.1351,-0.1386,-0.15,-0.1618,-0.1722,-0.1218,-0.1204,-0.1205,-0.1206,-0.1207,-0.1208,0,-0.0576,-0.0521,-0.0407,-0.0272,-0.0161,-0.0148,-0.0088,-0.0014,0.013,0.0254,0.0342,0.0329,0.0002,-0.0474,-0.103,-0.139,-0.162,-0.1612,-0.1765,-0.1868,-0.1397,-0.1367,-0.1375,-0.1375,-0.1375,-0.1375,-0.1375,-0.1374,-0.053,-0.0413,-0.0355,-0.0168,-0.0049,0.011,0.0197,0.0328,0.0416,0.069,0.0816,0.0843,0.0473,-0.0638,-0.148,-0.1695,-0.2055,-0.2054,-0.2317,-0.196,-0.1948,-0.1937,-0.1933,-0.2059,-0.206,-0.2732,-0.2738,-0.2742]}],[{"header":{"parameterUnit":"m.s-1","parameterCategory":2,"la1":30.2991,"la2":30.254,"lo1":-89.0895,"lo2":-89.0444,"dy":0.0017,"dx":0.0017,"nx":28,"ny":28,"refTime":"2024-02-29T03:00:00:Z","depth":"2","parameterNumber":2,"parameterNumberName":"U-component_of_CURRENTS"},"data":[0,0,0,0,0,0,0,0,0,0,0,0,0,0,0,0,0,0,0,0,0,0,0,0,0,0,0,0,0,0,0,0,0,0,0,0,0,0,0,0,0,0,0,0,0,0,0,0,0,0,0,0,0,0,0,0,0,0,0.1191,0.1192,0,0.1191,0.119,0.119,0.1232,0.1233,0.1235,0.1236,0.1245,0.1244,0.1243,0,0,0,0,0,0,0,0,0,0,0,0,0,0.1116,0.1118,0.1191,0.1192,0.1192,0.1191,0.119,0.119,0.1232,0.1233,0.1235,0.1236,0.1245,0.1244,0.1243,0,0,0,0,0,0,0,0,0,0,0,0,0,0.1134,0.1118,0.1191,0.1214,0.1216,0.1191,0.119,0.119,0.1232,0.1233,0.1235,0.1237,0.1246,0.1244,0.1243,0.1197,0,0,0.1239,0.1238,0,0,0,0,0,0,0,0,0.1133,0.1137,0.121,0.1212,0.1214,0.1215,0.1167,0.1193,0.1231,0.1224,0.1236,0.1238,0.1235,0.1235,0.1228,0.1197,0.1197,0.1239,0.1238,0.1237,0.1237,0,0,0,0,0,0,0,0.1132,0.1136,0.119,0.121,0.1213,0.1185,0.119,0.1172,0.1218,0.1225,0.1228,0.123,0.1237,0.1229,0.1229,0.1198,0.1239,0.1237,0.1237,0.1236,0.1317,0.132,0,0,0,0,0,0,0.1139,0.1136,0.119,0.119,0.1179,0.1185,0.1191,0.1211,0.1218,0.1221,0.1228,0.1232,0.1231,0.123,0.1229,0.1285,0.1237,0.1236,0.1235,0.1314,0.1318,0.1321,0,0,0,0,0,0,0.1138,0.1145,0.119,0.1162,0.1167,0.1186,0.1207,0.121,0.1236,0.1221,0.1225,0.1255,0.1232,0.1231,0.1287,0.1282,0.1235,0.1234,0.1311,0.1315,0.1319,0.1327,0,0,0,0,0,0,0.1136,0.1145,0.1185,0.1164,0.1169,0.1225,0.1205,0.1209,0.1233,0.1239,0.1244,0.1245,0.1234,0.1289,0.1285,0.1279,0.1233,0.1307,0.1313,0.1318,0.1323,0.1331,0.1338,0,0,0,0,0,0.1134,0.1087,0.1187,0.1195,0.1217,0.1227,0.1229,0.1244,0.1233,0.1268,0.1288,0.1247,0.1322,0.1291,0.1285,0.1279,0.1304,0.1311,0.1318,0.1319,0.1329,0.1338,0,0,0,0,0,0,0.1069,0.1089,0.1196,0.1171,0.1259,0.1236,0.1204,0.1256,0.1291,0.1302,0.1281,0.1285,0.1337,0.1323,0.129,0.133,0.1306,0.1312,0.1309,0.1318,0.1326,0.1384,0.1232,0,0,0,0,0,0.1091,0.1104,0.1157,0.119,0.1171,0.1218,0.1225,0.1292,0.1304,0.132,0.1318,0.133,0.1351,0.1352,0.1377,0.1379,0.1417,0.138,0.1388,0.1393,0.1446,0.1514,0.1531,0.1343,0.1343,0.1343,0,0,0.1101,0.1112,0.1136,0.1187,0.1198,0.122,0.1222,0.1253,0.1312,0.1313,0.1332,0.1365,0.137,0.14,0.1417,0.1386,0.1465,0.1402,0.1406,0.1456,0.1523,0.1541,0.1557,0.1348,0.1347,0.1346,0,0,0.1089,0.11,0.1108,0.1167,0.1241,0.1237,0.1261,0.1288,0.1311,0.14,0.1399,0.1458,0.1461,0.1471,0.1471,0.1537,0.1521,0.1526,0.1577,0.164,0.1656,0.167,0.1719,0.1738,0.1504,0.1504,0.1504,0,0.1125,0.1147,0.1129,0.1163,0.119,0.1239,0.1282,0.1296,0.1387,0.141,0.143,0.1506,0.1501,0.1531,0.1569,0.1548,0.159,0.1522,0.1647,0.1663,0.1677,0.1724,0.1745,0.1506,0.1505,0.1505,0.1505,0,0.1106,0.119,0.1149,0.1223,0.1257,0.1285,0.1318,0.1381,0.1407,0.1449,0.1535,0.1572,0.1619,0.1614,0.1614,0.1693,0.1691,0.1659,0.1612,0.1696,0.1741,0.1762,0.1507,0.1507,0.1506,0.1506,0,0,0.1016,0.1126,0.1134,0.1239,0.1295,0.1318,0.1369,0.1416,0.1456,0.1554,0.1611,0.1666,0.1695,0.1709,0.1701,0.177,0.1886,0.1769,0.1771,0.1799,0.2037,0.2043,0.2065,0.1873,0.1877,0.1881,0.2017,0,0.1032,0.1127,0.1153,0.1284,0.1317,0.1393,0.1438,0.1534,0.1557,0.1613,0.1665,0.1715,0.1706,0.1757,0.1817,0.1885,0.195,0.1854,0.1973,0.1978,0.1956,0.2093,0.1826,0.1928,0.2038,0.2041,0.2044,0,0.1024,0.1073,0.119,0.1372,0.1371,0.1458,0.1533,0.1601,0.1673,0.1725,0.1788,0.1792,0.1888,0.1886,0.2039,0.1981,0.2034,0.2089,0.2093,0.2126,0.2025,0.1872,0.1963,0.2079,0.2076,0.2074,0.2071,0,0.0999,0.1125,0.1212,0.127,0.1423,0.1506,0.1566,0.1652,0.1703,0.1789,0.187,0.1918,0.202,0.2087,0.2179,0.2118,0.2383,0.2272,0.2327,0.2325,0.2143,0.2119,0.2418,0.2418,0.2418,0.2418,0.2417,0,0.1007,0.1103,0.1225,0.1299,0.1401,0.1514,0.1598,0.1719,0.1822,0.1874,0.1915,0.201,0.2099,0.2211,0.2242,0.2385,0.2414,0.2407,0.2391,0.2137,0.2113,0.2277,0.2259,0.2423,0.2422,0.2421,0.242,0,0.1053,0.1125,0.1265,0.1398,0.1445,0.1531,0.1663,0.1704,0.1846,0.1943,0.1991,0.2144,0.2303,0.2378,0.2532,0.2505,0.2601,0.2639,0.2345,0.2295,0.2467,0.2448,0.2677,0.2679,0.268,0.2682,0.2683,0,0.1117,0.1182,0.1344,0.1386,0.1458,0.1546,0.1609,0.1742,0.1776,0.2001,0.2063,0.2277,0.2348,0.26,0.2569,0.2624,0.2736,0.2507,0.2344,0.2549,0.2509,0.2487,0.2466,0.2079,0.2075,0.2072,0.2069,0,0.1176,0.1236,0.1304,0.1412,0.1482,0.1529,0.1629,0.1693,0.1818,0.1922,0.2109,0.2198,0.237,0.2326,0.2458,0.2453,0.2458,0.2448,0.2767,0.2072,0.2001,0.1956,0.1952,0.2041,0.2044,0.2046,0.2048,0.2049,0.1174,0.1254,0.133,0.1421,0.1461,0.1526,0.156,0.164,0.1739,0.1868,0.1997,0.2071,0.2081,0.2109,0.2122,0.2179,0.2291,0.2241,0.2243,0.225,0.2175,0.2113,0.2158,0.2162,0.2164,0.2167,0.2169,0,0.1189,0.1258,0.1325,0.1402,0.1409,0.1481,0.1548,0.1534,0.1617,0.1729,0.1802,0.1647,0.1658,0.1787,0.1727,0.1755,0.1651,0.1824,0.1635,0.1664,0.169,0.1578,0.1408,0.1406,0.1405,0.1403,0,0,0.1174,0.1225,0.1289,0.1302,0.1365,0.1372,0.1414,0.1453,0.149,0.1452,0.1461,0.1499,0.1632,0.1421,0.1428,0.1431,0.1543,0.1411,0.2007,0.1805,0.1828,0.1909,0.177,0,0,0,0,0]},{"header":{"parameterUnit":"m.s-1","parameterCategory":2,"la1":30.2991,"la2":30.254,"lo1":-89.0895,"lo2":-89.0444,"dy":0.0017,"dx":0.0017,"nx":28,"ny":28,"refTime":"2024-02-29T03:00:00:Z","depth":"2","parameterNumber":3,"parameterNumberName":"V-component_of_CURRENTS"},"data":[0,0,0,0,0,0,0,0,0,0,0,0,0,0,0,0,0,0,0,0,0,0,0,0,0,0,0,0,0,0,0,0,0,0,0,0,0,0,0,0,0,0,0,0,0,0,0,0,0,0,0,0,0,0,0,0,0,0,-0.017,-0.017,0,-0.0133,-0.0132,-0.0131,-0.0182,-0.0184,-0.0186,-0.0189,-0.0279,-0.028,-0.028,0,0,0,0,0,0,0,0,0,0,0,0,0,-0.0085,-0.0087,-0.017,-0.017,-0.017,-0.0133,-0.0132,-0.0131,-0.0181,-0.0184,-0.0187,-0.019,-0.0279,-0.028,-0.028,0,0,0,0,0,0,0,0,0,0,0,0,0,-0.0088,-0.0088,-0.017,-0.0194,-0.0197,-0.0133,-0.0132,-0.0131,-0.0181,-0.0184,-0.0188,-0.0191,-0.0279,-0.028,-0.028,-0.0213,0,0,-0.0281,-0.0281,0,0,0,0,0,0,0,0,-0.0088,-0.009,-0.0191,-0.0193,-0.0195,-0.017,-0.0136,-0.0167,-0.018,-0.0181,-0.0189,-0.0193,-0.0256,-0.0258,-0.0234,-0.0218,-0.0221,-0.0281,-0.0281,-0.0282,-0.0282,0,0,0,0,0,0,0,-0.0088,-0.0091,-0.015,-0.0191,-0.0193,-0.014,-0.0145,-0.014,-0.0198,-0.0181,-0.0186,-0.019,-0.0258,-0.0233,-0.0237,-0.0223,-0.0281,-0.0282,-0.0282,-0.0282,-0.0392,-0.0395,0,0,0,0,0,0,-0.011,-0.0092,-0.0151,-0.0149,-0.0155,-0.014,-0.0145,-0.017,-0.0195,-0.0203,-0.0187,-0.0192,-0.0231,-0.0236,-0.0241,-0.0229,-0.0282,-0.0282,-0.0282,-0.039,-0.0393,-0.0396,0,0,0,0,0,0,-0.0109,-0.0116,-0.0152,-0.0122,-0.0124,-0.014,-0.0166,-0.0168,-0.0179,-0.0199,-0.0209,-0.0201,-0.0234,-0.024,-0.0301,-0.0232,-0.0282,-0.0283,-0.0386,-0.0391,-0.0394,-0.0165,0,0,0,0,0,0,-0.0107,-0.0116,-0.0162,-0.0125,-0.0127,-0.0147,-0.0163,-0.0165,-0.0176,-0.0184,-0.0213,-0.0223,-0.0237,-0.0301,-0.0302,-0.0233,-0.0283,-0.0383,-0.0388,-0.0393,-0.017,-0.0161,-0.0154,0,0,0,0,0,-0.0104,0.0016,-0.0164,-0.0172,-0.0183,-0.0148,-0.0144,-0.016,-0.0174,-0.0181,-0.0228,-0.0224,-0.0335,-0.0302,-0.0303,-0.0232,-0.0381,-0.0387,-0.0393,-0.0173,-0.0163,-0.0154,0,0,0,0,0,0,0.0061,0.0018,-0.0174,-0.0091,-0.0205,-0.016,-0.0082,-0.0166,-0.0195,-0.023,-0.0239,-0.0252,-0.03,-0.0328,-0.0292,-0.0304,-0.0363,-0.0369,-0.0196,-0.0187,-0.0179,-0.024,-0.0283,0,0,0,0,0,0.0037,0.0038,-0.0048,-0.0059,-0.0032,-0.0111,-0.0101,-0.0201,-0.0209,-0.0225,-0.022,-0.0267,-0.0312,-0.0304,-0.0368,-0.0327,-0.0379,-0.0306,-0.0297,-0.0289,-0.0354,-0.038,-0.0377,-0.0416,-0.0416,-0.0415,0,0,0.0072,0.0035,0.0021,-0.0043,-0.0064,-0.005,-0.0103,-0.0116,-0.014,-0.0231,-0.0165,-0.0258,-0.0323,-0.0315,-0.0331,-0.0317,-0.0293,-0.0297,-0.0287,-0.0359,-0.0386,-0.0381,-0.0376,-0.042,-0.0419,-0.0418,0,0,0.0165,0.0139,0.015,0.0103,-0.0016,-0.002,-0.0041,-0.0058,-0.006,-0.0144,-0.0181,-0.0272,-0.0282,-0.0294,-0.0312,-0.0314,-0.0293,-0.0298,-0.0225,-0.0244,-0.0239,-0.0236,-0.0204,-0.02,-0.0234,-0.0234,-0.0233,0,0.0142,0.0162,0.0148,0.0145,0.0149,0.0009,0.0012,0.0024,-0.0064,-0.0043,-0.0143,-0.0237,-0.0295,-0.0255,-0.0273,-0.0286,-0.0274,-0.0213,-0.0222,-0.0221,-0.0221,-0.0192,-0.019,-0.0223,-0.0225,-0.0226,-0.0227,0,0.028,0.021,0.0301,0.0208,0.0198,0.0218,0.0181,0.0152,0.0091,0.006,-0.0002,-0.0132,-0.0187,-0.0195,-0.0242,-0.0218,-0.0197,-0.0232,-0.021,-0.0201,-0.0172,-0.0174,-0.0209,-0.0212,-0.0215,-0.0218,0,0,0.0426,0.0379,0.0375,0.0288,0.024,0.0254,0.0273,0.0288,0.0334,0.0174,0.0227,0.0073,-0.0009,-0.0053,-0.0088,-0.0125,-0.0097,-0.0156,-0.0162,-0.0065,-0.0071,-0.0085,-0.0089,-0.0075,-0.0077,-0.0078,-0.0011,0,0.0481,0.0478,0.0466,0.043,0.0463,0.0372,0.0416,0.0349,0.0354,0.0405,0.0247,0.0239,0.0089,0.0036,-0.0017,-0.0101,-0.011,-0.0112,-0.0157,-0.0161,-0.0123,-0.0097,-0.0148,-0.0098,-0.0014,-0.0014,-0.0015,0,0.0591,0.0597,0.0582,0.0492,0.0524,0.0478,0.0534,0.0538,0.0574,0.0524,0.0466,0.0429,0.0351,0.0173,0.0046,0.0081,-0.001,-0.0102,-0.0099,-0.0225,-0.0184,-0.0126,-0.0107,-0.0019,-0.0019,-0.0019,-0.0018,0,0.0681,0.0657,0.0653,0.0643,0.0579,0.0545,0.0536,0.0559,0.062,0.064,0.0621,0.0574,0.0455,0.0346,0.0159,0.0136,0.0009,-0.002,-0.0115,-0.0112,-0.0243,-0.0251,-0.0148,-0.0148,-0.0148,-0.0148,-0.0148,0,0.0782,0.076,0.0683,0.0679,0.0685,0.0617,0.0719,0.0611,0.0656,0.0782,0.0707,0.0739,0.0468,0.0418,0.0266,0.0081,0.0113,-0.0138,-0.0119,-0.0159,-0.0161,-0.0204,-0.0211,-0.0145,-0.0146,-0.0147,-0.0147,0,0.0765,0.0758,0.0695,0.0659,0.0663,0.0638,0.0726,0.0843,0.0798,0.0924,0.0909,0.0828,0.0732,0.054,0.0339,0.0177,0.0039,-0.0033,-0.0045,-0.0034,-0.008,-0.0078,-0.0111,-0.0111,-0.0111,-0.0112,-0.0112,0,0.0715,0.071,0.0613,0.0656,0.0626,0.0716,0.0794,0.0812,0.0978,0.1046,0.1089,0.1002,0.0997,0.0696,0.0369,0.0122,0.0085,-0.0071,-0.0203,-0.011,-0.0087,-0.0084,-0.0081,-0.0233,-0.0235,-0.0236,-0.0236,0,0.0673,0.0602,0.0604,0.0644,0.0712,0.0863,0.0995,0.1084,0.1211,0.1288,0.1376,0.1365,0.105,0.0722,0.0302,0.0148,-0.0037,-0.01,0.0007,-0.0248,-0.0225,-0.0203,-0.0196,-0.0246,-0.0245,-0.0244,-0.0244,-0.0243,0.0666,0.0592,0.0611,0.0678,0.0785,0.0925,0.1105,0.1311,0.1473,0.1535,0.1552,0.1445,0.1067,0.044,0.0187,-0.0117,-0.011,-0.0241,-0.0238,-0.0234,-0.0274,-0.0256,-0.0285,-0.0284,-0.0283,-0.0283,-0.0283,0,0.0626,0.0631,0.0697,0.0802,0.0957,0.0948,0.1229,0.1461,0.1675,0.1589,0.1626,0.1198,0.0796,0.044,-0.0063,-0.0333,-0.037,-0.0373,-0.0388,-0.0378,-0.037,-0.0417,-0.0465,-0.0465,-0.0466,-0.0467,0,0,0.0681,0.0754,0.0764,0.1004,0.1036,0.1243,0.1375,0.1603,0.1681,0.1619,0.1453,0.1199,0.0773,0.0367,0.001,-0.0224,-0.023,-0.0262,-0.01,-0.0069,-0.0057,-0.0289,-0.035,0,0,0,0,0]}],[{"header":{"parameterUnit":"m.s-1","parameterCategory":2,"la1":30.2991,"la2":30.254,"lo1":-89.0895,"lo2":-89.0444,"dy":0.0017,"dx":0.0017,"nx":28,"ny":28,"refTime":"2024-02-29T03:00:00:Z","depth":"4","parameterNumber":2,"parameterNumberName":"U-component_of_CURRENTS"},"data":[0,0,0,0,0,0,0,0,0,0,0,0,0,0,0,0,0,0,0,0,0,0,0,0,0,0,0,0,0,0,0,0,0,0,0,0,0,0,0,0,0,0,0,0,0,0,0,0,0,0,0,0,0,0,0,0,0,0,0.0457,0.0458,0,0.05,0.05,0.0501,0.058,0.0581,0.0582,0.0584,0.066,0.0661,0.0662,0,0,0,0,0,0,0,0,0,0,0,0,0,0.0398,0.0399,0.0457,0.0458,0.0458,0.05,0.05,0.0501,0.0579,0.0581,0.0583,0.0584,0.066,0.0661,0.0662,0,0,0,0,0,0,0,0,0,0,0,0,0,0.0432,0.04,0.0457,0.0501,0.0506,0.05,0.05,0.0501,0.0579,0.0581,0.0583,0.0585,0.066,0.0661,0.0662,0.0627,0,0,0.0665,0.0666,0,0,0,0,0,0,0,0,0.043,0.0434,0.0495,0.0498,0.0503,0.0536,0.0508,0.0545,0.0578,0.0552,0.0584,0.0586,0.0619,0.0624,0.0629,0.063,0.0633,0.0665,0.0666,0.0667,0.0667,0,0,0,0,0,0,0,0.0428,0.0433,0.0475,0.0495,0.05,0.0503,0.0511,0.0515,0.0575,0.0555,0.056,0.0562,0.0623,0.0627,0.0631,0.0635,0.0665,0.0666,0.0667,0.0668,0.0712,0.0712,0,0,0,0,0,0,0.042,0.043,0.0474,0.0477,0.047,0.0503,0.0511,0.0524,0.0575,0.0584,0.0561,0.0566,0.0624,0.063,0.0634,0.0677,0.0667,0.0668,0.0668,0.0711,0.0712,0.0712,0,0,0,0,0,0,0.0419,0.0424,0.0472,0.0453,0.0459,0.0502,0.0515,0.0524,0.0558,0.0578,0.0589,0.059,0.0626,0.0632,0.0674,0.0678,0.0668,0.0669,0.0711,0.0711,0.0712,0.0711,0,0,0,0,0,0,0.0417,0.0424,0.0441,0.0453,0.046,0.0493,0.0513,0.0523,0.0554,0.0562,0.0606,0.0614,0.0628,0.0673,0.0675,0.0679,0.067,0.071,0.0711,0.0712,0.071,0.0711,0.0713,0,0,0,0,0,0.0415,0.0431,0.0442,0.0448,0.048,0.0493,0.0498,0.0535,0.0553,0.0573,0.0609,0.0614,0.0681,0.0674,0.0677,0.0681,0.071,0.0711,0.0712,0.071,0.0711,0.0713,0,0,0,0,0,0,0.0419,0.0441,0.0453,0.0478,0.0493,0.0507,0.0531,0.0543,0.0583,0.0604,0.0622,0.0632,0.0669,0.0675,0.0667,0.0698,0.0694,0.0696,0.0692,0.0693,0.0694,0.0702,0.0671,0,0,0,0,0,0.0423,0.0444,0.0459,0.048,0.0492,0.0511,0.0525,0.0548,0.0575,0.0597,0.0631,0.0659,0.0667,0.0684,0.0703,0.0716,0.0724,0.0721,0.0722,0.0723,0.0732,0.0746,0.0749,0.0716,0.0716,0.0716,0,0,0.0429,0.0443,0.0457,0.0482,0.0502,0.0524,0.0528,0.0559,0.0587,0.0596,0.0664,0.0669,0.0673,0.0698,0.0713,0.0709,0.0736,0.0725,0.0725,0.0734,0.0748,0.0751,0.0754,0.0717,0.0717,0.0717,0,0,0.044,0.0468,0.0487,0.0503,0.0533,0.0549,0.0561,0.0595,0.0628,0.0665,0.0679,0.0692,0.0723,0.0725,0.0723,0.0739,0.0743,0.0743,0.0752,0.0765,0.0768,0.077,0.0779,0.0782,0.0741,0.0741,0.0741,0,0.0446,0.0474,0.0494,0.0515,0.0537,0.0562,0.059,0.0615,0.0663,0.0686,0.0698,0.0728,0.0732,0.0733,0.0739,0.074,0.0751,0.0743,0.0766,0.0769,0.0772,0.0779,0.0783,0.0741,0.0741,0.0741,0.0741,0,0.0465,0.0495,0.051,0.055,0.0578,0.0605,0.0641,0.0682,0.0716,0.0734,0.0766,0.0765,0.078,0.077,0.0757,0.0768,0.077,0.0766,0.076,0.0775,0.0782,0.0786,0.0741,0.0741,0.0741,0.0741,0,0,0.046,0.0512,0.052,0.0545,0.0602,0.0622,0.0679,0.0724,0.0763,0.0791,0.0825,0.0814,0.0813,0.081,0.079,0.0789,0.0802,0.0785,0.0786,0.079,0.0834,0.0824,0.0827,0.0805,0.0806,0.0806,0.0829,0,0.0472,0.0512,0.0542,0.0594,0.0624,0.0669,0.0713,0.076,0.0807,0.0853,0.0836,0.0865,0.0827,0.0831,0.0821,0.0814,0.0813,0.0796,0.0824,0.0824,0.0811,0.0832,0.0809,0.0832,0.0833,0.0834,0.0834,0,0.0482,0.0512,0.0563,0.062,0.0638,0.0678,0.0764,0.0813,0.0872,0.0901,0.0918,0.092,0.0913,0.0885,0.0874,0.0869,0.0855,0.0842,0.0843,0.0839,0.0822,0.0817,0.0841,0.084,0.084,0.0839,0.0839,0,0.0469,0.0525,0.057,0.059,0.0661,0.0702,0.0757,0.0835,0.0884,0.0953,0.0981,0.0977,0.0987,0.0965,0.0925,0.0914,0.0916,0.0901,0.0877,0.0875,0.0876,0.0874,0.0903,0.0903,0.0903,0.0903,0.0903,0,0.0467,0.05,0.057,0.0593,0.065,0.0715,0.0796,0.0846,0.0927,0.0969,0.1011,0.1013,0.1012,0.1002,0.0957,0.0928,0.0944,0.0888,0.0886,0.0874,0.0871,0.0879,0.0875,0.0904,0.0904,0.0903,0.0903,0,0.0445,0.0489,0.0533,0.0612,0.0647,0.0698,0.0814,0.0862,0.0953,0.1012,0.1032,0.1065,0.1068,0.1053,0.1029,0.0981,0.0947,0.093,0.0924,0.0919,0.089,0.0886,0.0922,0.0922,0.0922,0.0922,0.0922,0,0.0432,0.0459,0.0539,0.0575,0.0618,0.071,0.0763,0.0865,0.0911,0.101,0.1008,0.1065,0.1069,0.1027,0.1017,0.0981,0.0957,0.0944,0.0911,0.0901,0.0894,0.0891,0.0888,0.0922,0.0922,0.0922,0.0922,0,0.0405,0.0439,0.047,0.0551,0.0611,0.0673,0.0758,0.0784,0.0888,0.0962,0.0979,0.0996,0.1015,0.1001,0.1005,0.0954,0.0956,0.0943,0.0943,0.0912,0.0901,0.0894,0.0891,0.0922,0.0922,0.0922,0.0922,0,0.038,0.0389,0.0444,0.0512,0.0583,0.0628,0.0676,0.073,0.0789,0.0896,0.0883,0.0938,0.0988,0.0986,0.0954,0.0954,0.094,0.0897,0.0899,0.0899,0.0883,0.0865,0.0881,0,0,0,0,0,0.0352,0.0366,0.0412,0.0471,0.054,0.0586,0.0665,0.0709,0.0793,0.0789,0.085,0.0859,0.0887,0.09,0.0896,0.0945,0.0935,0.0936,0.0885,0.0921,0.0921,0.0905,0,0,0,0,0,0,0.0332,0.0364,0.0386,0.0436,0.0474,0.0535,0.0582,0.063,0.064,0.0726,0.0737,0.0816,0.0839,0.0879,0.0878,0.0888,0.0843,0.0978,0.0977,0.0921,0.0921,0.0921,0.0904,0,0,0,0,0]},{"header":{"parameterUnit":"m.s-1","parameterCategory":2,"la1":30.2991,"la2":30.254,"lo1":-89.0895,"lo2":-89.0444,"dy":0.0017,"dx":0.0017,"nx":28,"ny":28,"refTime":"2024-02-29T03:00:00:Z","depth":"4","parameterNumber":3,"parameterNumberName":"V-component_of_CURRENTS"},"data":[0,0,0,0,0,0,0,0,0,0,0,0,0,0,0,0,0,0,0,0,0,0,0,0,0,0,0,0,0,0,0,0,0,0,0,0,0,0,0,0,0,0,0,0,0,0,0,0,0,0,0,0,0,0,0,0,0,0,0.0368,0.0368,0,0.0331,0.0331,0.033,0.0323,0.0324,0.0324,0.0324,0.0222,0.0219,0.0216,0,0,0,0,0,0,0,0,0,0,0,0,0,0.0379,0.0379,0.0368,0.0368,0.0367,0.0331,0.0331,0.033,0.0323,0.0324,0.0324,0.0325,0.0223,0.0219,0.0215,0,0,0,0,0,0,0,0,0,0,0,0,0,0.036,0.0379,0.0368,0.036,0.0359,0.0331,0.0331,0.033,0.0323,0.0324,0.0324,0.0325,0.0224,0.0219,0.0215,0.0175,0,0,0.0201,0.0199,0,0,0,0,0,0,0,0,0.0362,0.036,0.0362,0.0361,0.0359,0.0333,0.0297,0.0275,0.0323,0.0336,0.0325,0.0325,0.0253,0.0246,0.0238,0.017,0.0166,0.02,0.0198,0.0196,0.0194,0,0,0,0,0,0,0,0.0363,0.0361,0.0353,0.0361,0.036,0.034,0.0338,0.0293,0.029,0.0335,0.0335,0.0332,0.0252,0.0242,0.0235,0.0164,0.02,0.0196,0.0193,0.0192,0.0054,0.0053,0,0,0,0,0,0,0.0371,0.0363,0.0354,0.0352,0.0363,0.034,0.0338,0.034,0.0292,0.0286,0.0331,0.0331,0.025,0.024,0.0231,0.0167,0.0196,0.0191,0.0189,0.0055,0.0054,0.0053,0,0,0,0,0,0,0.0372,0.0371,0.0355,0.0356,0.0353,0.0339,0.0342,0.0339,0.0332,0.029,0.0282,0.0327,0.025,0.0238,0.0186,0.0164,0.0189,0.0185,0.0056,0.0054,0.0053,0.0048,0,0,0,0,0,0,0.0372,0.0372,0.0374,0.0357,0.0354,0.0341,0.0341,0.0338,0.0329,0.0329,0.0283,0.0274,0.0249,0.0193,0.0181,0.0158,0.0181,0.0057,0.0055,0.0054,0.0049,0.0047,0.0044,0,0,0,0,0,0.0373,0.0373,0.0375,0.0374,0.0359,0.0341,0.0337,0.0328,0.0329,0.0324,0.0288,0.0276,0.0174,0.0188,0.0175,0.015,0.0058,0.0056,0.0054,0.005,0.0047,0.0044,0,0,0,0,0,0,0.0378,0.0371,0.0374,0.0372,0.036,0.0341,0.0333,0.0328,0.0297,0.0296,0.0258,0.0246,0.0191,0.0172,0.0188,0.0106,0.0116,0.0111,0.0118,0.0115,0.0112,0.012,0.0177,0,0,0,0,0,0.0381,0.0382,0.037,0.037,0.0364,0.0349,0.034,0.0336,0.0309,0.0298,0.0257,0.0216,0.0172,0.0147,0.0104,0.0056,0.0045,0.0033,0.0031,0.0029,0.0027,-0.0008,-0.0014,0.0046,0.0046,0.0046,0,0,0.0382,0.038,0.0379,0.0371,0.036,0.0349,0.0345,0.0334,0.0318,0.0287,0.024,0.0201,0.0156,0.0103,0.0078,0.0084,0.0007,0.0026,0.0025,0.0024,-0.0011,-0.0017,-0.0022,0.0045,0.0045,0.0045,0,0,0.0381,0.0382,0.0381,0.0374,0.0363,0.035,0.0348,0.0322,0.0304,0.0255,0.0229,0.0179,0.0108,0.0072,0.0046,0.0004,-0.0007,-0.0007,-0.0015,-0.0049,-0.0054,-0.0059,-0.0073,-0.0079,-0.0006,-0.0006,-0.0006,0,0.0383,0.0383,0.0376,0.0373,0.0365,0.0351,0.0343,0.0319,0.0276,0.0245,0.024,0.0127,0.0092,0.0026,0.0015,-0.0003,-0.0013,0.0,-0.0052,-0.0056,-0.0061,-0.0075,-0.0081,-0.0007,-0.0006,-0.0006,-0.0006,0,0.0379,0.0381,0.0377,0.037,0.0358,0.0349,0.0322,0.0295,0.0265,0.0228,0.0151,0.0099,0.0037,0.0015,-0.0,-0.0054,-0.0047,-0.0051,-0.0041,-0.0067,-0.008,-0.0086,-0.0007,-0.0007,-0.0007,-0.0007,0,0,0.0379,0.0375,0.0376,0.0374,0.0357,0.0346,0.0313,0.0267,0.0233,0.0175,0.0119,0.0041,0.0013,-0.0016,-0.0043,-0.0076,-0.0115,-0.0073,-0.0074,-0.0081,-0.0175,-0.0156,-0.0161,-0.0125,-0.0126,-0.0127,-0.0167,0,0.0377,0.0376,0.0371,0.0359,0.0351,0.0331,0.0299,0.0256,0.0204,0.0142,0.0079,0.0018,0.0003,-0.0022,-0.0061,-0.0105,-0.0133,-0.0102,-0.0154,-0.0155,-0.0131,-0.0169,-0.0132,-0.0172,-0.0174,-0.0175,-0.0176,0,0.0376,0.0372,0.0368,0.0351,0.0345,0.0335,0.0281,0.0251,0.0167,0.0124,0.0055,0.0011,-0.0053,-0.0054,-0.0139,-0.0116,-0.0143,-0.0173,-0.0176,-0.0161,-0.0149,-0.0144,-0.0187,-0.0186,-0.0186,-0.0185,-0.0184,0,0.0376,0.0371,0.0368,0.0365,0.034,0.0328,0.0307,0.0239,0.0208,0.012,0.0088,-0.0003,-0.0036,-0.0096,-0.0148,-0.0145,-0.0233,-0.0236,-0.0246,-0.0244,-0.0244,-0.0239,-0.0293,-0.0293,-0.0292,-0.0292,-0.0292,0,0.0372,0.037,0.0372,0.0368,0.0359,0.0335,0.0305,0.0266,0.0206,0.017,0.009,0.0053,-0.0047,-0.0104,-0.0155,-0.0217,-0.0236,-0.0256,-0.0261,-0.0244,-0.0238,-0.0248,-0.0242,-0.0294,-0.0293,-0.0293,-0.0293,0,0.037,0.0373,0.0374,0.0361,0.0364,0.0355,0.0337,0.0305,0.0251,0.0209,0.0192,0.0093,0.0018,-0.0071,-0.017,-0.0213,-0.028,-0.0292,-0.0257,-0.0258,-0.0267,-0.0261,-0.0321,-0.0321,-0.0321,-0.0321,-0.032,0,0.0366,0.0369,0.0384,0.0393,0.0393,0.0384,0.0377,0.0333,0.031,0.0242,0.0227,0.0143,0.0078,-0.0045,-0.015,-0.0258,-0.0266,-0.0302,-0.0303,-0.0275,-0.0274,-0.0268,-0.0263,-0.032,-0.032,-0.032,-0.032,0,0.0356,0.0373,0.0379,0.0404,0.0413,0.0415,0.0408,0.0401,0.0352,0.0316,0.027,0.0186,0.0095,-0.0024,-0.0108,-0.0185,-0.0288,-0.0301,-0.0302,-0.0303,-0.0275,-0.0273,-0.0267,-0.032,-0.032,-0.032,-0.032,0,0.0361,0.0371,0.0393,0.0411,0.0431,0.0438,0.043,0.0416,0.0397,0.034,0.033,0.0219,0.0151,0.0015,-0.0064,-0.0144,-0.0167,-0.0192,-0.0199,-0.0201,-0.0158,-0.0104,-0.0109,0,0,0,0,0,0.0364,0.0378,0.0393,0.0412,0.0433,0.0446,0.0447,0.0432,0.0409,0.0396,0.0367,0.0292,0.015,0.007,-0.0002,-0.0079,-0.0196,-0.0169,-0.023,-0.0317,-0.0318,-0.0288,0,0,0,0,0,0,0.0368,0.039,0.0392,0.0413,0.0431,0.0445,0.0453,0.0436,0.0426,0.04,0.0331,0.0285,0.0147,0.021,0.0005,-0.0028,-0.0075,-0.024,-0.0242,-0.0317,-0.0317,-0.0318,-0.0287,0,0,0,0,0]}]]